DW9313 Weather Reports


Display with metric or nautical units.
time (UTC)temp
F
wind
direction
speed
MPH
gust
MPH
rain 1hr
in
rain 24hr
in
rain mn
in
humidity
%
barometer
mb
20200226021728 37 293 6.0 18.0 0.00 0.15 0.00 94 1004.9
20200226021228 37 280 6.0 15.0 0.00 0.15 0.00 94 1004.8
20200226020729 37 296 7.0 22.0 0.00 0.15 0.00 94 1004.8
20200226020228 37 291 7.0 16.0 0.00 0.15 0.00 94 1004.7
20200226015728 37 295 6.0 16.0 0.00 0.15 0.00 94 1004.8
20200226015229 37 289 7.0 16.0 0.00 0.15 0.00 94 1004.7
20200226014729 37 292 6.0 16.0 0.00 0.15 0.00 93 1004.7
20200226014228 37 293 7.0 14.0 0.00 0.15 0.00 93 1004.6
20200226013729 36 289 7.0 16.0 0.00 0.15 0.00 93 1004.5
20200226013229 36 293 6.0 14.0 0.00 0.15 0.00 93 1004.4
20200226012729 36 289 9.0 21.0 0.00 0.15 0.00 93 1004.3
20200226012229 36 294 6.0 14.0 0.00 0.15 0.00 93 1004.2
20200226011729 36 292 7.0 16.0 0.00 0.15 0.00 93 1004.0
20200226011229 36 281 6.0 16.0 0.00 0.15 0.00 94 1004.0
20200226010729 36 281 7.0 20.0 0.00 0.15 0.00 94 1003.9
20200226010229 35 286 7.0 16.0 0.00 0.15 0.00 94 1003.8
20200226005729 35 281 6.0 20.0 0.00 0.15 0.00 93 1003.7
20200226005229 35 298 7.0 18.0 0.00 0.15 0.00 94 1003.6
20200226004729 35 287 9.0 22.0 0.00 0.15 0.00 94 1003.6
20200226004229 35 283 9.0 25.0 0.00 0.15 0.00 94 1003.4
20200226003729 35 290 7.0 18.0 0.00 0.15 0.00 94 1003.5
20200226003229 35 300 6.0 15.0 0.00 0.15 0.00 95 1003.4
20200226002729 35 281 6.0 14.0 0.00 0.15 0.00 96 1003.4
20200226002229 35 294 6.0 14.0 0.00 0.15 0.00 96 1003.4
20200226001729 35 289 6.0 14.0 0.00 0.15 0.00 96 1003.4
20200226001230 35 277 6.0 16.0 0.00 0.15 0.00 96 1003.5
20200226000755 35 296 7.0 18.0 0.00 0.15 0.00 95 1003.4
20200226000229 35 292 7.0 18.0 0.00 0.15 0.00 96 1003.3
20200225235729 35 290 7.0 15.0 0.00 0.15 0.15 95 1003.2
20200225235229 35 296 8.0 16.0 0.01 0.15 0.15 96 1002.8
20200225234730 35 298 6.0 16.0 0.01 0.15 0.15 96 1002.8
20200225234229 35 291 8.0 20.0 0.01 0.15 0.15 96 1002.6
20200225233730 35 293 7.0 16.0 0.01 0.15 0.15 96 1002.7
20200225233230 35 281 9.0 22.0 0.01 0.15 0.15 97 1002.6
20200225232730 35 288 6.0 16.0 0.01 0.15 0.15 98 1002.5
20200225232230 35 291 7.0 18.0 0.01 0.15 0.15 99 1002.5
20200225231729 35 300 6.0 14.0 0.01 0.15 0.15 99 1002.6
20200225231230 35 295 6.0 15.0 0.01 0.15 0.15 99 1002.5
20200225230730 35 285 10.0 18.0 0.01 0.15 0.15 98 1002.4
20200225230230 35 300 7.0 16.0 0.01 0.15 0.15 98 1002.3
20200225225730 35 282 9.0 30.0 0.01 0.15 0.15 97 1002.1
20200225225230 35 285 9.0 25.0 0.01 0.14 0.14 97 1002.2
20200225224730 35 294 8.0 20.0 0.01 0.14 0.14 96 1002.1
20200225224231 35 281 7.0 16.0 0.01 0.14 0.14 96 1001.9
20200225223730 35 289 8.0 16.0 0.01 0.14 0.14 95 1001.9
20200225223230 35 297 7.0 16.0 0.01 0.14 0.14 96 1001.7
20200225222731 35 288 8.0 22.0 0.01 0.14 0.14 95 1001.7
20200225222230 35 290 7.0 22.0 0.01 0.14 0.14 96 1001.5
20200225221731 35 289 10.0 21.0 0.01 0.14 0.14 96 1001.3
20200225221230 35 295 7.0 15.0 0.02 0.14 0.14 97 1001.2
20200225220731 35 281 9.0 22.0 0.02 0.14 0.14 98 1001.1
20200225220230 35 285 6.0 14.0 0.03 0.14 0.14 98 1001.2
20200225215731 35 281 7.0 25.0 0.03 0.14 0.14 98 1001.4
20200225215231 35 284 9.0 21.0 0.03 0.13 0.13 98 1001.3
20200225214730 35 269 7.0 15.0 0.03 0.13 0.13 98 1001.2
20200225214230 35 285 7.0 15.0 0.04 0.13 0.13 98 1001.2
20200225213731 35 292 7.0 16.0 0.04 0.13 0.13 98 1001.0
20200225213239 35 281 6.0 14.0 0.04 0.13 0.13 98 1000.8
20200225212731 35 280 6.0 13.0 0.04 0.13 0.13 99 1000.8
20200225212240 35 272 7.0 16.0 0.05 0.13 0.13 99 1000.7
20200225211730 35 284 6.0 15.0 0.05 0.13 0.13 99 1000.8
20200225211231 34 277 5.0 15.0 0.05 0.13 0.13 99 1000.8
20200225210732 34 299 6.0 13.0 0.04 0.12 0.12 98 1000.8
20200225210231 34 271 6.0 14.0 0.04 0.12 0.12 98 1000.8
20200225205731 35 269 7.0 14.0 0.03 0.11 0.11 97 1000.8
20200225205231 35 274 6.0 14.0 0.02 0.10 0.10 96 1000.8
20200225204731 35 277 7.0 13.0 0.02 0.10 0.10 96 1000.7
20200225204231 35 286 6.0 16.0 0.02 0.10 0.10 95 1000.8
20200225203731 35 282 6.0 14.0 0.01 0.09 0.09 96 1000.8
20200225203231 35 283 5.0 13.0 0.01 0.09 0.09 96 1000.8
20200225202732 35 277 6.0 14.0 0.01 0.09 0.09 96 1000.8
20200225202231 35 288 7.0 13.0 0.00 0.08 0.08 95 1000.9
20200225201731 35 285 5.0 13.0 0.00 0.08 0.08 95 1000.9
20200225201231 35 277 6.0 12.0 0.00 0.08 0.08 94 1000.7
20200225200731 35 268 5.0 12.0 0.00 0.08 0.08 94 1000.7
20200225200232 35 270 5.0 9.0 0.00 0.08 0.08 94 1000.6
20200225195733 34 277 4.0 12.0 0.00 0.08 0.08 94 1000.8
20200225195232 34 283 3.0 7.0 0.01 0.08 0.08 94 1000.7
20200225194732 34 291 3.0 6.0 0.01 0.08 0.08 95 1000.7
20200225194232 34 276 4.0 8.0 0.01 0.08 0.08 95 1000.7
20200225193731 34 271 4.0 7.0 0.02 0.08 0.08 95 1000.7
20200225193231 34 286 5.0 12.0 0.02 0.08 0.08 95 1000.7
20200225192732 34 273 5.0 13.0 0.02 0.08 0.08 95 1000.5
20200225192232 34 280 7.0 14.0 0.02 0.08 0.08 90 1000.4
20200225191732 34 284 6.0 15.0 0.02 0.08 0.08 86 1000.4
20200225191232 34 283 6.0 14.0 0.02 0.08 0.08 86 1000.3
20200225190732 34 280 4.0 6.0 0.02 0.08 0.08 86 1000.4
20200225190231 34 282 3.0 8.0 0.02 0.08 0.08 86 1000.3
20200225185732 34 282 4.0 8.0 0.02 0.08 0.08 86 1000.6
20200225185232 35 283 4.0 9.0 0.01 0.07 0.07 86 1000.7
20200225184732 35 294 5.0 9.0 0.01 0.07 0.07 85 1000.7
20200225184232 35 294 5.0 12.0 0.01 0.07 0.07 85 1000.8
20200225183732 35 297 7.0 16.0 0.00 0.06 0.06 85 1000.7
20200225183232 36 291 7.0 20.0 0.00 0.06 0.06 84 1000.9
20200225182733 37 279 9.0 21.0 0.00 0.06 0.06 82 1001.1
20200225182232 37 273 4.0 14.0 0.00 0.06 0.06 82 1000.7
20200225181732 37 287 7.0 12.0 0.00 0.06 0.06 83 1000.2
20200225181233 37 286 6.0 13.0 0.00 0.06 0.06 83 1000.3
20200225180733 37 292 6.0 14.0 0.00 0.06 0.06 84 1000.2
20200225180233 37 287 6.0 14.0 0.00 0.06 0.06 85 1000.2
20200225175732 37 293 6.0 14.0 0.00 0.06 0.06 85 1000.2
20200225175233 36 302 9.0 15.0 0.00 0.06 0.06 86 1000.2
20200225174732 36 288 8.0 21.0 0.00 0.06 0.06 86 1000.1
20200225174232 36 287 9.0 18.0 0.00 0.06 0.06 86 1000.0
20200225173733 36 281 7.0 16.0 0.00 0.06 0.06 86 1000.0
20200225173233 36 286 8.0 18.0 0.00 0.06 0.06 86 1000.0
20200225172732 36 285 6.0 15.0 0.00 0.06 0.06 86 1000.1
20200225172233 36 281 5.0 13.0 0.00 0.06 0.06 86 1000.0
20200225171732 36 287 5.0 15.0 0.00 0.06 0.06 86 1000.0
20200225171233 36 287 6.0 15.0 0.00 0.06 0.06 86 999.8
20200225170733 36 284 6.0 16.0 0.00 0.06 0.06 86 999.7
20200225170233 36 286 5.0 12.0 0.00 0.06 0.06 86 999.7
20200225165733 36 293 5.0 16.0 0.00 0.06 0.06 86 999.8
20200225165233 37 302 7.0 15.0 0.01 0.06 0.06 86 999.9
20200225164733 37 273 11.0 25.0 0.02 0.06 0.06 86 1000.1
20200225164233 37 286 7.0 16.0 0.03 0.06 0.06 86 999.8
20200225163733 38 292 8.0 18.0 0.04 0.06 0.06 86 999.7
20200225163233 38 289 6.0 14.0 0.04 0.06 0.06 86 999.5
20200225162733 38 279 5.0 14.0 0.04 0.06 0.06 86 999.4
20200225162233 38 286 4.0 8.0 0.04 0.06 0.06 86 999.5
20200225161733 38 292 5.0 8.0 0.04 0.06 0.06 86 999.4
20200225161233 38 268 3.0 8.0 0.04 0.06 0.06 86 999.5
20200225160733 37 271 5.0 8.0 0.04 0.06 0.06 86 999.5
20200225160233 37 280 6.0 14.0 0.04 0.06 0.06 85 999.7
20200225155733 37 286 6.0 16.0 0.04 0.06 0.06 85 999.7
20200225155233 37 292 9.0 18.0 0.03 0.05 0.05 84 999.7
20200225154733 38 311 7.0 18.0 0.02 0.04 0.04 83 999.5
20200225154234 40 306 12.0 26.0 0.01 0.03 0.03 81 999.6
20200225153734 40 296 7.0 16.0 0.00 0.02 0.02 80 999.6
20200225153234 41 287 10.0 20.0 0.00 0.02 0.02 78 999.6
20200225152733 41 298 9.0 21.0 0.00 0.02 0.02 77 999.5
20200225152234 42 301 15.0 29.0 0.00 0.02 0.02 75 999.5
20200225151734 43 269 6.0 14.0 0.00 0.02 0.02 73 999.1
20200225151233 43 293 9.0 18.0 0.00 0.02 0.02 72 999.0
20200225150733 43 296 6.0 20.0 0.00 0.02 0.02 71 999.0
20200225150234 43 290 9.0 16.0 0.00 0.02 0.02 72 999.0
20200225145734 43 297 7.0 20.0 0.00 0.02 0.02 73 999.0
20200225145234 42 296 6.0 13.0 0.00 0.02 0.02 75 999.1
20200225144734 42 296 9.0 16.0 0.00 0.02 0.02 74 999.1
20200225144233 42 307 8.0 16.0 0.00 0.02 0.02 76 999.1
20200225143734 41 305 9.0 18.0 0.00 0.02 0.02 76 999.0
20200225143234 41 308 9.0 20.0 0.00 0.02 0.02 75 999.1
20200225142734 42 298 12.0 30.0 0.00 0.02 0.02 74 999.2
20200225142234 43 291 10.0 26.0 0.00 0.02 0.02 71 999.1
20200225141734 43 276 10.0 25.0 0.00 0.02 0.02 70 999.0
20200225141234 43 283 7.0 16.0 0.00 0.02 0.02 70 999.1
20200225140735 43 284 10.0 21.0 0.00 0.02 0.02 68 999.0
20200225140246 43 291 7.0 18.0 0.00 0.02 0.02 69 999.0
20200225135735 43 300 10.0 20.0 0.00 0.02 0.02 68 999.1
20200225135235 43 289 6.0 18.0 0.00 0.02 0.02 70 999.2
20200225134735 43 281 6.0 16.0 0.00 0.02 0.02 70 999.2
20200225134235 44 282 9.0 18.0 0.00 0.02 0.02 71 999.2
20200225133735 43 289 6.0 16.0 0.00 0.02 0.02 73 999.4
20200225133235 43 300 10.0 29.0 0.00 0.02 0.02 75 999.3
20200225132734 42 298 5.0 18.0 0.00 0.02 0.02 77 999.2
20200225132235 41 282 3.0 12.0 0.00 0.02 0.02 79 999.3
20200225131735 41 286 5.0 16.0 0.00 0.02 0.02 79 999.5
20200225131234 41 296 8.0 18.0 0.00 0.02 0.02 79 999.6
20200225130734 41 293 10.0 23.0 0.00 0.02 0.02 78 999.6
20200225130234 41 281 11.0 26.0 0.00 0.02 0.02 77 999.5
20200225125734 42 278 10.0 22.0 0.00 0.02 0.02 77 999.4
20200225125235 42 276 7.0 16.0 0.00 0.02 0.02 77 999.5
20200225124735 42 285 9.0 20.0 0.00 0.02 0.02 77 999.4
20200225124235 41 270 6.0 14.0 0.00 0.02 0.02 78 999.4
20200225123735 41 288 7.0 14.0 0.00 0.02 0.02 79 999.3
20200225123235 41 278 8.0 16.0 0.00 0.02 0.02 80 999.2
20200225122735 40 288 9.0 18.0 0.00 0.02 0.02 80 999.3
20200225122235 40 276 7.0 14.0 0.01 0.02 0.02 82 999.5
20200225121735 40 292 6.0 16.0 0.01 0.02 0.02 82 999.6
20200225121235 40 284 9.0 18.0 0.01 0.02 0.02 83 999.7
20200225120736 39 281 7.0 16.0 0.01 0.02 0.02 83 999.8
20200225120236 40 283 8.0 18.0 0.01 0.02 0.02 83 999.8
20200225115735 40 277 8.0 20.0 0.01 0.02 0.02 82 999.9
20200225115235 41 286 10.0 21.0 0.01 0.02 0.02 81 999.8
20200225114736 42 278 8.0 18.0 0.01 0.02 0.02 79 999.6
20200225114235 42 280 7.0 20.0 0.01 0.02 0.02 80 999.5
20200225113736 41 259 6.0 14.0 0.01 0.02 0.02 81 999.5
20200225113236 41 281 7.0 15.0 0.01 0.02 0.02 80 999.6
20200225112736 41 280 6.0 13.0 0.01 0.02 0.02 82 999.5
20200225112235 40 286 6.0 13.0 0.00 0.01 0.01 82 999.6
20200225111735 41 286 9.0 16.0 0.00 0.01 0.01 82 999.6
20200225111236 41 282 9.0 15.0 0.00 0.01 0.01 81 999.6
20200225110736 41 270 6.0 13.0 0.00 0.01 0.01 81 999.5
20200225110236 42 264 7.0 15.0 0.00 0.01 0.01 80 999.7
20200225105735 42 269 5.0 12.0 0.00 0.01 0.01 81 999.6
20200225105236 41 277 5.0 12.0 0.00 0.01 0.01 81 999.7
20200225104735 41 277 5.0 13.0 0.00 0.01 0.01 81 999.8
20200225104236 41 258 6.0 14.0 0.00 0.01 0.01 80 999.7
20200225103736 41 278 8.0 12.0 0.00 0.01 0.01 81 999.8
20200225103236 40 274 5.0 12.0 0.00 0.01 0.01 82 999.7
20200225102736 40 285 5.0 9.0 0.00 0.01 0.01 83 999.7
20200225102236 40 280 7.0 16.0 0.00 0.01 0.01 82 999.8
20200225101736 40 285 7.0 15.0 0.00 0.01 0.01 83 999.9
20200225101236 40 282 7.0 14.0 0.00 0.01 0.01 82 1000.0
20200225100736 40 254 6.0 12.0 0.00 0.01 0.01 83 1000.0
20200225100236 40 263 5.0 14.0 0.00 0.01 0.01 83 1000.1
20200225095737 40 269 7.0 15.0 0.00 0.01 0.01 83 1000.2
20200225095236 40 266 7.0 14.0 0.00 0.01 0.01 83 1000.3
20200225094736 40 269 6.0 14.0 0.00 0.01 0.01 83 1000.3
20200225094236 40 257 6.0 14.0 0.00 0.01 0.01 83 1000.5
20200225093737 40 263 6.0 14.0 0.00 0.01 0.01 83 1000.5
20200225093236 40 254 5.0 12.0 0.00 0.01 0.01 83 1000.6
20200225092736 40 261 5.0 12.0 0.00 0.01 0.01 83 1000.6
20200225092237 40 278 7.0 13.0 0.00 0.01 0.01 83 1000.8
20200225091236 40 278 5.0 9.0 0.00 0.01 0.01 84 1001.0
20200225090737 40 277 5.0 12.0 0.00 0.01 0.01 84 1001.0
20200225090236 39 273 4.0 7.0 0.00 0.01 0.01 84 1001.2
20200225085737 39 262 4.0 8.0 0.00 0.01 0.01 84 1001.3
20200225085237 39 267 2.0 7.0 0.00 0.01 0.01 85 1001.4
20200225084737 39 245 1.0 6.0 0.00 0.01 0.01 85 1001.4
20200225084237 38 270 2.0 6.0 0.00 0.01 0.01 85 1001.4
20200225083737 38 263 1.0 6.0 0.00 0.01 0.01 85 1001.5
20200225083237 38 260 2.0 6.0 0.00 0.01 0.01 85 1001.5
20200225082737 38 202 2.0 6.0 0.00 0.01 0.01 85 1001.6
20200225082237 38 149 2.0 6.0 0.00 0.01 0.01 85 1001.6
20200225081737 38 249 2.0 6.0 0.00 0.01 0.01 85 1001.6
20200225081237 38 272 2.0 5.0 0.00 0.01 0.01 85 1001.6
20200225080737 38 235 3.0 7.0 0.00 0.01 0.01 85 1001.6
20200225080237 38 276 5.0 8.0 0.00 0.01 0.01 85 1001.7
20200225075738 37 276 3.0 7.0 0.00 0.01 0.01 85 1001.7
20200225075237 37 278 4.0 8.0 0.00 0.01 0.01 85 1001.9
20200225074737 37 254 3.0 6.0 0.00 0.01 0.01 85 1002.1
20200225074237 37 262 4.0 8.0 0.00 0.01 0.01 85 1002.0
20200225073737 37 254 3.0 6.0 0.00 0.01 0.01 85 1002.1
20200225073238 37 279 2.0 5.0 0.00 0.01 0.01 85 1002.2
20200225072738 37 261 2.0 2.0 0.00 0.01 0.01 85 1002.2
20200225072238 37 276 1.0 2.0 0.00 0.01 0.01 85 1002.3
20200225071737 37 279 1.0 6.0 0.00 0.02 0.01 85 1002.3
20200225071238 37 305 1.0 5.0 0.00 0.02 0.01 85 1002.3
20200225070737 38 273 3.0 7.0 0.00 0.02 0.01 85 1002.5
20200225070238 38 242 3.0 7.0 0.00 0.02 0.01 85 1002.6
20200225065738 38 266 1.0 6.0 0.00 0.02 0.01 85 1002.6
20200225065238 38 270 0.0 0.0 0.00 0.02 0.01 85 1002.6
20200225064737 38 261 0.0 0.0 0.00 0.02 0.01 85 1002.7
20200225064237 38 225 0.0 0.0 0.00 0.02 0.01 85 1002.7
20200225063738 39 270 0.0 0.0 0.00 0.02 0.01 85 1002.8
20200225063238 39 271 0.0 6.0 0.00 0.02 0.01 85 1002.9
20200225062738 39 271 2.0 6.0 0.00 0.02 0.01 85 1002.9
20200225062239 39 255 3.0 7.0 0.00 0.02 0.01 84 1002.9
20200225061738 39 232 5.0 9.0 0.00 0.02 0.01 84 1002.9
20200225061238 39 274 5.0 8.0 0.00 0.02 0.01 84 1003.0
20200225060738 40 272 5.0 12.0 0.00 0.02 0.01 84 1003.2
20200225060238 39 272 3.0 9.0 0.00 0.02 0.01 85 1003.1
20200225055739 39 279 5.0 8.0 0.00 0.02 0.01 85 1003.5
20200225055239 38 276 2.0 8.0 0.00 0.02 0.01 85 1003.6
20200225054739 39 233 0.0 2.0 0.00 0.02 0.01 85 1003.5
20200225054238 39 233 1.0 5.0 0.00 0.02 0.01 85 1003.4
20200225053739 39 224 2.0 6.0 0.00 0.03 0.01 85 1003.4
20200225053238 39 281 3.0 6.0 0.00 0.03 0.01 85 1003.4
20200225052739 38 284 2.0 6.0 0.00 0.03 0.01 85 1003.5
20200225052238 38 288 0.0 2.0 0.00 0.03 0.01 85 1003.6
20200225051739 38 298 1.0 2.0 0.00 0.04 0.01 85 1003.6
20200225051242 38 266 0.0 5.0 0.00 0.04 0.01 85 1003.6
20200225050739 37 315 2.0 6.0 0.00 0.05 0.01 85 1003.5
20200225050239 37 41 0.0 2.0 0.00 0.05 0.01 85 1003.3
20200225045739 37 33 1.0 5.0 0.00 0.06 0.01 85 1003.2
20200225045239 37 131 0.0 0.0 0.00 0.06 0.01 85 1003.3
20200225044738 37 119 0.0 2.0 0.00 0.07 0.01 85 1003.3
20200225044239 37 122 0.0 0.0 0.00 0.08 0.01 84 1003.4
20200225043739 38 205 0.0 0.0 0.00 0.08 0.01 84 1003.4
20200225043240 38 271 0.0 0.0 0.00 0.09 0.01 84 1003.5
20200225042738 38 271 0.0 0.0 0.00 0.10 0.01 85 1003.5
20200225042239 38 263 0.0 2.0 0.00 0.11 0.01 85 1003.5
20200225041739 37 270 0.0 6.0 0.00 0.11 0.01 85 1003.6
20200225041239 37 235 0.0 0.0 0.00 0.11 0.01 84 1003.7
20200225040740 38 235 0.0 0.0 0.00 0.12 0.01 84 1003.7
20200225040239 38 235 0.0 0.0 0.00 0.13 0.01 84 1003.8
20200225035740 38 235 0.0 0.0 0.00 0.13 0.01 84 1003.9
20200225035240 38 266 0.0 1.0 0.00 0.14 0.01 83 1003.9
20200225034739 39 293 0.0 2.0 0.00 0.15 0.01 83 1003.9
20200225034240 39 278 1.0 2.0 0.00 0.15 0.01 83 1004.0
20200225033740 39 264 0.0 2.0 0.00 0.16 0.01 82 1004.1
20200225033240 39 274 1.0 6.0 0.00 0.17 0.01 82 1004.2
20200225032739 39 257 0.0 6.0 0.01 0.18 0.01 82 1004.2
20200225032239 39 243 2.0 6.0 0.01 0.19 0.01 82 1004.2
20200225031739 39 273 0.0 0.0 0.01 0.19 0.01 82 1004.2
20200225031240 40 283 1.0 6.0 0.01 0.20 0.01 82 1004.3
20200225030739 40 279 1.0 6.0 0.01 0.21 0.01 82 1004.4
20200225030240 40 286 3.0 7.0 0.01 0.21 0.01 82 1004.5
20200225025740 40 304 2.0 6.0 0.01 0.22 0.01 82 1004.6
20200225025239 40 240 3.0 6.0 0.01 0.23 0.01 83 1004.6
20200225024740 41 282 3.0 7.0 0.01 0.25 0.01 83 1004.8
20200225024239 41 279 4.0 12.0 0.01 0.25 0.01 84 1004.9
20200225023740 41 293 2.0 6.0 0.01 0.26 0.01 84 1005.0
20200225023240 41 278 5.0 8.0 0.01 0.26 0.01 84 1004.9
20200225022740 41 265 3.0 8.0 0.00 0.26 0.00 84 1005.3
20200225022241 41 280 2.0 8.0 0.00 0.26 0.00 84 1005.2